Content
SEND FEEDBACK

Daily
Averages
Monthly
Summary
Spain

CONIL, SPAIN


Home > Europe > Spain
Elevation: 59 feet     Latitude: 36 39N     Longitude: 006 21W

WEATHER
 
SELECT A DAY
Number of Records: 117,176;   Date Range: 7/1/96 - 10/20/14
 
SHARE

PRINT THIS DATA

[ ← Previous Day ]
WEATHER ALMANAC - JANUARY 31, 2013
[ Next Day → ]
[ °C ]   °F
Weather ElementAverageHighLow
Temperature50.5 °F62.6 °F (2:00 pm)41 °F (8:36 am)
Dewpoint47.2 °F51.8 °F (1:00 pm)41 °F (8:00 am)
Humidity89 %100 % (1:00 am)68 % (2:00 pm)
Barometer30.44 in30.48 in (10:00 am)30.42 in (5:00 am)
Wind Speed2.3 mph8.1 mph (6:00 pm)
Weather ElementAverage
Visibility2.9 mi
Wind DirectionENE (60.7 °)

Weather ElementTotal
Precipitation---
Heating Degree Days13.2 (Base 65)
Growing Degree Days1.8 (Base 50)
Averaged from 28 records on January 31, 2013
WEATHER CONDITIONS BREAKOUT
WIND DIRECTION BREAKOUT
WEATHER BY HOUR - JANUARY 31, 2013
[ °C ]   °F
Local TimeTemperatureDewpointHumidityBarometerVisibilityWind DirectionWind SpeedGust SpeedPrecipitationEventsConditions
1:00 AM48.2 °F48.2 °F100 %30.45 in2.5 miCalmMist
2:00 AM48.2 °F46.4 °F93 %30.45 in1.9 miVariable2.3 mphMist
3:00 AM46.4 °F44.6 °F93 %30.45 in0.5 miVariable1.2 mphFogFog
3:12 AM46.4 °F44.6 °F93 %30.45 in0.9 miCalmFogPatches of Fog
3:29 AM46.4 °F44.6 °F93 %30.45 in1.9 miCalmMist
4:00 AM46.4 °F44.6 °F93 %30.45 in0.6 miVariable1.2 mphFogPatches of Fog
4:13 AM46.4 °F44.6 °F93 %30.45 in1.2 miVariable1.2 mphFogPatches of Fog
5:00 AM46.4 °F44.6 °F93 %30.42 in1.2 miCalmFogPatches of Fog
6:00 AM42.8 °F42.8 °F100 %30.42 in1.9 miVariable1.2 mphMist
7:00 AM42.8 °F42.8 °F100 %30.42 in3.1 miVariable1.2 mphMist
8:00 AM42.8 °F41.0 °F93 %30.45 in1.2 miVariable1.2 mphMist
8:36 AM41.0 °F41.0 °F100 %30.45 in3.1 miCalmMist
9:00 AM42.8 °F41.0 °F93 %30.45 in2.5 miNNE (20°)3.5 mphMist
10:00 AM46.4 °F44.6 °F93 %30.48 in3.7 miNNE (30°)4.6 mph
11:00 AM50.0 °F48.2 °F94 %30.48 in5.6 miVariable2.3 mph
12:00 PM55.4 °F50.0 °F82 %30.48 in5.6 miVariable1.2 mph
1:00 PM59.0 °F51.8 °F77 %30.48 in5.6 miVariable2.3 mph
2:00 PM62.6 °F51.8 °F68 %30.45 inVariable2.3 mphClear
3:00 PM60.8 °F51.8 °F72 %30.42 inVariable1.2 mphClear
4:00 PM60.8 °F51.8 °F72 %30.42 inWest (260°)3.5 mphClear
5:00 PM60.8 °F50.0 °F68 %30.42 inWest (270°)5.8 mphClear
6:00 PM59.0 °F51.8 °F77 %30.42 in5.6 miWest (260°)8.1 mph
7:00 PM55.4 °F51.8 °F88 %30.42 in5.0 miWest (280°)6.9 mph
8:00 PM53.6 °F50.0 °F88 %30.42 in5.0 miWNW (290°)4.6 mph
9:00 PM51.8 °F50.0 °F94 %30.45 in5.0 miWNW (290°)5.8 mph
10:00 PM51.8 °F50.0 °F94 %30.45 in3.7 miVariable2.3 mph
11:00 PM50.0 °F48.2 °F94 %30.45 in1.2 miCalmMist
11:37 PM50.0 °F48.2 °F94 %30.42 in0.6 miVariable1.2 mphMist
Hourly data recorded from LERT, located miles away from Conil, Spain







STORIES FROM OUR PARTNERS